Theta_e
306 307 307 307 307 307 307 306 306 306 306 306 306 307 307 307 307 307 307 307 307 307 308 308 308 308 309 309 308 306 304 304 307 309 311 311 307 308 313 315 313 309 309 309 312 316 314 310 311 313 314 315 317 318 318 318 318 316 316 316 315 317 316 316 318 318 319 319 321 321 320 321 320 323 323 325 342 352 352 353 352 351 351 350 351 352 352 354
306 306 307 307 307 307 307 306 306 306 306 306 306 306 306 306 306 307 307 307 307 307 308 307 308 308 308 308 308 306 304 306 309 311 312 306 305 309 313 315 315 312 309 307 308 313 315 313 311 312 313 316 317 317 318 318 318 316 317 318 315 317 317 317 319 319 321 320 320 321 321 322 321 325 322 326 343 351 354 355 354 353 353 351 352 352 353 353
306 306 306 307 307 307 307 306 306 306 306 306 305 306 306 306 306 307 307 307 307 307 307 307 307 308 308 308 307 305 306 309 311 313 310 305 306 308 311 314 314 314 312 308 307 309 313 314 313 313 314 318 318 317 317 317 318 316 317 318 316 317 317 317 318 318 321 320 321 321 321 322 324 327 324 325 340 348 354 356 356 356 355 353 352 352 353 353
306 306 306 306 306 307 307 306 306 306 305 305 305 306 306 306 306 307 307 306 306 307 307 307 307 307 308 308 306 304 307 311 313 313 310 308 308 307 310 312 312 313 312 308 307 307 309 311 312 314 316 318 318 317 317 316 317 317 316 316 317 317 317 317 317 318 320 321 321 320 320 321 324 328 326 324 332 342 351 354 355 357 356 354 352 352 352 352
306 306 306 306 306 306 306 306 305 305 305 305 305 305 306 306 306 307 307 307 307 307 307 307 307 307 308 307 304 304 309 313 312 311 311 313 310 310 309 310 312 311 310 307 306 307 308 309 311 313 316 317 317 317 317 316 317 317 316 316 316 316 316 317 317 318 319 321 321 320 320 318 321 326 329 334 337 340 347 352 353 354 354 354 352 352 353 355
306 306 306 306 306 306 306 305 305 305 305 305 305 305 306 305 306 306 307 307 307 307 307 307 307 307 307 306 303 306 312 314 312 311 310 313 312 312 311 310 311 311 309 307 306 307 308 309 312 313 315 317 316 316 316 316 317 317 317 316 316 316 316 316 317 318 319 320 320 320 319 318 321 322 331 342 344 341 344 349 350 351 353 351 351 353 356 361
306 306 306 306 306 305 305 305 305 305 305 305 305 305 306 305 305 305 306 307 307 307 306 306 306 307 307 305 305 309 312 314 314 311 310 311 310 313 313 311 311 310 309 307 307 307 308 310 312 314 315 317 316 316 316 316 317 317 317 316 317 317 316 317 317 318 319 319 319 319 318 319 321 319 333 345 343 341 342 344 345 347 349 350 352 355 359 362
306 306 306 306 306 305 305 305 305 305 305 305 305 305 306 305 305 305 306 306 306 306 306 306 306 306 307 305 308 311 310 312 312 310 311 310 309 309 309 310 309 310 309 308 308 307 308 310 312 315 315 316 317 316 316 316 316 316 317 317 317 317 317 318 318 319 319 319 318 319 317 318 321 317 332 345 343 342 342 341 343 345 348 350 353 357 360 361
306 306 306 306 305 305 305 305 305 305 305 305 305 305 305 306 306 305 305 306 306 306 305 306 306 306 306 306 308 311 311 309 307 309 311 311 309 307 306 307 306 308 309 308 308 307 308 309 311 314 315 316 317 316 316 315 315 316 316 316 317 316 317 317 318 318 318 319 318 318 317 318 321 316 329 344 341 340 340 340 342 345 348 350 353 358 360 362
306 306 306 306 305 305 305 305 305 305 305 305 305 305 305 305 305 305 305 306 306 305 306 305 306 306 305 306 308 311 312 305 306 309 311 311 310 307 307 308 307 306 308 308 308 308 308 309 311 313 314 315 315 316 316 315 315 316 316 316 317 317 316 317 318 319 318 319 318 318 318 318 320 315 328 343 341 338 339 338 340 343 348 349 352 358 360 360
306 306 306 306 305 305 305 304 304 305 305 305 305 305 305 305 305 305 305 305 305 305 305 305 306 306 305 307 308 311 310 306 310 310 312 312 311 311 309 310 310 308 308 308 308 309 309 309 311 312 313 314 314 315 315 315 315 315 315 315 316 316 316 316 317 318 317 318 318 318 318 318 318 315 328 341 340 338 339 338 339 342 347 349 351 356 356 354
305 306 306 306 305 305 305 305 305 305 305 305 305 305 305 305 305 304 304 305 305 305 305 305 305 305 306 307 307 310 306 306 310 311 312 311 312 316 314 312 311 310 309 308 308 309 309 310 310 311 312 313 313 313 314 315 315 314 314 314 316 316 316 316 316 318 317 317 318 318 316 317 317 316 328 338 337 337 337 337 338 340 344 347 351 354 353 350
305 305 306 306 305 305 305 305 305 305 304 304 304 305 305 305 304 303 303 304 304 304 305 304 304 304 305 307 307 306 303 306 308 309 310 310 311 315 315 314 313 312 311 309 309 310 310 311 310 310 312 312 313 313 314 315 314 314 314 313 315 316 316 317 316 316 317 317 318 317 314 316 317 316 327 334 334 336 336 336 336 338 342 344 348 350 349 348
305 305 305 306 305 305 305 305 305 305 304 304 304 304 304 304 304 303 303 303 304 304 304 304 304 305 305 306 306 303 302 304 306 307 308 309 311 311 313 314 314 314 313 311 311 310 310 311 311 310 311 311 312 313 314 314 314 314 313 313 315 314 314 317 317 316 316 317 318 316 314 317 318 316 322 329 332 335 335 335 336 338 341 341 343 345 346 346
305 305 305 305 305 305 305 305 305 304 304 304 304 304 304 303 303 302 303 303 304 304 304 304 304 305 306 307 306 303 303 304 305 304 305 307 309 310 311 312 314 315 316 315 313 312 311 311 311 310 310 311 312 312 313 313 314 314 312 312 313 312 314 316 317 316 316 317 318 317 314 316 318 317 320 324 328 333 335 336 337 339 339 338 341 343 343 343
305 305 304 304 305 305 305 305 304 304 304 304 304 303 303 302 302 302 302 303 303 303 303 303 304 305 306 307 306 306 307 308 308 305 304 306 307 309 310 311 315 316 316 316 315 315 314 312 311 310 311 311 312 312 312 312 313 314 313 312 313 312 312 314 315 317 317 317 317 317 315 315 317 317 320 323 327 333 337 338 338 339 339 339 341 341 340 340
305 304 304 304 304 305 305 305 304 304 304 304 303 303 302 302 302 302 302 303 304 303 303 304 304 305 306 306 306 307 308 309 309 309 308 306 307 310 309 309 312 315 315 313 313 314 314 313 311 311 311 311 312 312 312 311 313 316 314 313 314 313 312 312 313 316 316 316 317 318 317 316 318 318 320 323 328 336 338 338 340 339 339 340 339 339 340 340
305 305 305 304 304 305 305 305 304 304 303 303 303 302 301 302 302 302 302 303 304 304 304 304 304 307 310 308 308 309 309 309 309 310 310 307 308 309 309 308 310 313 312 312 313 313 313 313 311 311 312 311 312 312 312 312 314 316 315 313 313 312 312 311 312 315 316 316 316 317 317 317 318 319 323 324 330 338 339 339 341 340 338 340 339 340 340 341
304 305 305 305 304 305 304 304 304 303 303 303 302 302 302 303 304 304 303 304 305 305 306 306 305 310 310 308 308 308 309 309 310 311 310 308 308 309 309 308 308 310 311 312 313 313 313 314 312 312 311 311 311 312 312 313 313 315 316 313 312 311 311 312 314 315 316 315 315 317 317 316 318 323 327 325 330 340 339 339 341 340 340 341 341 341 340 339
303 304 304 304 304 304 304 304 304 303 303 303 302 303 303 305 307 307 305 304 305 306 306 305 306 308 308 308 308 308 309 309 309 311 311 309 308 308 308 307 307 308 310 313 314 313 313 314 313 311 310 311 312 312 313 313 312 313 315 313 312 311 311 313 315 315 316 316 314 317 317 317 320 324 326 324 330 339 340 340 340 340 341 342 342 341 340 340
302 303 304 304 304 304 304 304 303 303 302 302 302 303 303 304 308 308 306 305 305 305 304 304 306 306 307 307 306 307 308 308 309 310 310 309 308 308 307 307 307 307 309 312 314 314 313 314 314 312 312 313 312 314 315 314 313 312 312 312 312 311 311 314 315 315 316 316 315 318 317 318 322 324 330 334 336 339 340 340 340 341 341 342 342 342 341 340
302 303 303 303 304 304 304 303 303 302 302 302 302 302 302 303 304 305 304 305 305 306 305 305 305 305 306 306 306 307 307 308 308 309 310 309 307 307 306 306 306 307 310 312 314 314 313 314 314 313 314 314 313 314 314 314 314 313 312 312 312 312 313 314 315 315 315 316 317 317 317 319 324 331 338 343 342 341 340 340 341 342 343 343 342 341 339 337
302 302 303 303 303 303 303 303 303 302 302 303 303 302 302 302 303 304 304 305 305 305 306 306 306 306 305 305 306 306 306 307 308 309 310 308 307 307 306 306 305 308 310 311 314 315 314 314 315 315 314 315 314 313 312 313 313 314 314 312 312 312 312 311 314 316 315 318 319 317 321 324 328 338 343 343 341 341 339 339 339 340 341 341 339 338 336 335
302 302 303 303 303 303 303 303 303 302 302 302 302 303 302 302 303 304 304 305 305 304 306 307 307 307 306 306 306 305 306 307 307 309 310 308 307 306 306 306 305 308 311 311 313 314 314 314 314 315 314 314 314 312 313 313 312 314 315 313 312 313 313 313 314 316 315 319 321 320 323 325 328 339 345 342 340 340 338 338 337 335 336 335 335 334 333 333
301 301 302 302 302 302 302 302 302 301 302 302 303 302 302 303 303 304 304 305 305 304 305 306 307 308 308 308 307 306 306 306 308 309 309 308 307 306 306 307 306 308 311 311 312 313 314 314 314 314 313 313 312 311 312 312 312 313 315 315 314 314 315 315 315 316 314 314 318 321 323 324 327 337 343 341 340 340 337 337 336 334 334 332 332 332 330 330
301 301 302 302 302 302 302 301 301 301 302 303 303 303 303 304 303 304 304 306 306 305 304 305 307 309 309 308 307 306 305 307 309 310 310 309 308 307 306 307 307 309 311 312 312 313 313 314 314 313 313 312 311 311 312 313 313 312 315 316 316 316 315 316 315 314 312 313 318 321 325 328 327 332 341 341 339 338 336 335 333 332 332 331 330 330 329 329
300 300 301 301 302 301 301 301 301 302 303 304 304 303 304 304 304 304 306 308 309 306 304 305 307 309 309 308 307 306 306 308 309 310 310 309 308 308 306 306 307 309 312 313 312 312 313 314 313 312 313 312 311 310 311 313 313 312 316 316 317 316 315 317 315 314 315 317 318 319 325 330 327 331 339 339 337 337 335 333 332 330 330 329 328 328 328 328
299 300 301 301 302 301 301 301 302 303 303 304 304 304 305 304 305 306 306 309 312 306 305 305 306 308 308 308 307 306 307 308 308 309 309 309 309 307 306 306 307 309 311 313 313 314 314 314 313 312 312 312 311 311 312 313 313 314 316 317 318 317 317 318 315 314 317 315 313 316 325 330 328 332 339 338 338 339 336 333 331 330 329 328 327 327 327 327
299 300 300 301 301 301 301 301 302 302 302 303 304 304 305 305 308 309 308 310 311 305 306 306 306 308 307 307 306 306 307 307 308 309 309 309 309 308 307 306 308 310 311 313 314 315 313 313 314 312 312 312 312 312 313 313 313 314 316 317 317 318 317 318 315 313 316 315 313 315 322 329 330 333 338 340 340 339 336 333 331 329 328 327 327 327 326 326
300 299 300 301 301 301 301 301 301 300 300 302 303 304 305 306 309 310 310 312 309 305 306 305 306 307 306 306 306 306 307 307 308 309 309 309 309 309 308 307 308 309 311 313 314 314 314 313 314 314 313 313 312 313 313 313 314 315 315 315 315 318 317 316 318 314 313 316 316 314 317 323 325 330 337 341 340 337 334 333 330 328 327 327 326 327 326 326
300 300 300 301 301 301 301 302 302 301 301 302 303 303 307 308 308 309 312 312 308 307 305 305 306 307 306 306 306 306 306 307 307 308 309 308 308 308 308 308 307 308 311 313 313 314 314 313 314 314 315 314 313 313 313 313 314 315 316 313 313 316 314 312 315 316 317 320 317 314 313 313 320 333 341 340 337 334 332 331 330 327 326 326 325 325 325 325
300 300 300 300 301 301 302 302 302 302 302 302 303 305 308 308 306 308 311 309 308 308 305 306 307 306 307 306 306 306 306 306 307 308 309 308 308 308 309 308 306 308 311 313 313 314 314 313 313 314 316 315 313 312 312 313 314 315 315 314 314 314 312 311 314 316 319 322 318 314 312 318 331 339 339 337 335 332 331 329 327 326 325 324 324 324 324 323
300 299 299 300 300 301 301 302 301 301 301 302 304 306 308 308 307 307 308 308 310 309 306 308 307 306 307 306 305 305 305 306 306 308 308 309 309 309 309 309 307 309 312 314 315 315 315 315 314 314 316 315 314 312 311 311 312 313 313 315 316 314 312 314 316 316 318 319 317 312 313 328 340 338 333 334 332 329 328 326 325 325 324 323 323 322 322 322
299 299 299 299 300 301 301 301 300 300 300 303 305 306 307 308 308 307 306 308 309 310 309 308 307 307 306 306 306 305 305 306 306 307 308 309 310 310 309 309 308 308 312 316 316 315 317 317 315 314 314 316 314 312 312 312 313 314 314 316 316 315 318 318 317 318 319 317 315 314 319 331 340 336 329 329 327 326 326 324 323 323 322 323 322 322 322 322
298 298 299 299 300 301 301 301 300 300 301 304 306 306 307 308 308 309 309 309 310 313 313 310 307 307 307 306 306 306 306 306 306 306 307 308 310 311 309 309 309 308 311 316 316 313 314 315 315 315 315 315 314 314 315 314 313 315 315 314 313 316 325 322 318 320 320 317 322 331 333 334 335 332 327 326 325 325 324 322 322 322 322 323 322 322 322 322
298 298 299 300 301 302 301 300 300 301 302 304 306 306 307 307 308 310 311 311 312 313 314 315 310 307 307 307 306 306 306 306 307 307 307 309 310 311 309 309 309 308 310 317 317 314 315 316 315 315 316 314 315 315 315 314 316 316 313 312 313 316 324 322 316 319 320 319 328 337 338 335 334 332 328 326 325 324 323 323 322 322 322 323 323 323 321 320
299 299 300 301 301 302 301 300 301 302 302 304 306 306 306 305 306 308 309 310 311 312 314 317 314 308 308 308 306 306 305 305 307 307 307 308 310 311 309 309 309 309 310 315 317 316 317 317 315 314 314 314 315 316 315 315 316 315 311 312 314 312 319 324 319 317 317 319 329 337 338 337 336 335 331 327 327 326 324 323 322 321 322 322 322 321 319 319
299 300 300 301 301 301 301 301 302 303 303 305 305 305 305 305 306 306 308 309 310 311 313 316 317 311 308 308 308 307 306 306 307 308 308 308 309 311 309 309 310 309 310 312 317 320 318 317 318 315 313 315 315 316 316 316 315 314 313 312 317 316 315 319 319 319 317 319 332 340 338 337 337 334 332 330 328 327 324 323 323 321 321 321 321 319 318 318
300 299 300 301 302 301 301 302 303 303 304 305 304 305 305 305 306 306 307 308 309 312 315 316 317 315 313 311 310 308 306 306 307 308 308 307 309 310 310 310 309 309 310 309 317 323 321 323 326 320 312 315 316 314 316 316 314 315 314 311 317 320 316 316 317 320 320 321 334 341 337 338 338 332 331 330 328 327 325 324 323 321 321 321 320 318 317 317
300 300 302 303 303 302 301 302 303 304 304 304 304 304 305 305 306 306 307 308 309 313 317 317 317 317 317 315 313 311 307 307 308 309 309 308 308 310 309 310 310 309 310 309 316 323 320 323 330 325 314 314 315 314 314 315 314 314 314 313 314 314 316 318 316 316 319 323 334 340 339 338 335 330 329 329 327 326 325 323 323 321 321 319 318 317 317 317
301 302 303 303 303 303 302 302 303 304 304 304 304 304 304 305 306 306 307 308 309 311 313 314 315 317 317 316 316 314 309 306 307 308 310 307 308 311 309 310 311 309 310 310 313 322 324 323 328 325 316 313 315 314 313 314 314 314 315 316 317 316 315 316 316 315 314 319 329 337 341 338 331 328 330 329 326 325 324 323 322 320 318 317 316 316 316 317
301 303 304 303 303 303 302 303 304 304 304 305 304 304 304 305 306 306 307 308 309 310 310 311 313 315 316 316 316 315 312 309 307 308 311 309 309 312 309 310 312 310 312 312 311 322 330 324 320 319 316 315 316 315 314 315 314 314 316 315 317 320 316 315 322 322 312 315 329 337 340 336 328 328 331 328 325 324 322 321 320 318 317 316 315 315 316 316
302 303 304 303 303 304 304 304 305 304 305 305 304 304 304 305 306 306 307 309 309 310 310 311 313 314 316 315 315 315 315 314 310 307 311 312 310 311 310 310 311 310 311 312 313 319 326 322 318 318 316 315 316 314 314 315 314 314 316 315 315 318 318 319 329 328 317 317 331 339 339 334 328 328 329 325 323 322 320 319 318 317 316 315 315 315 315 316
303 304 305 304 303 305 305 306 307 306 305 305 305 305 305 306 306 306 308 310 309 309 311 312 313 315 315 314 314 314 315 317 315 310 311 313 312 312 312 310 311 311 311 314 316 318 322 323 322 320 317 316 317 317 316 315 314 315 317 317 316 315 317 319 321 321 319 320 329 339 338 332 328 326 324 322 321 320 318 318 317 316 316 315 315 315 315 316
304 305 306 305 304 305 305 307 308 308 307 307 308 308 307 307 306 307 309 309 308 308 310 310 312 314 314 314 315 315 315 317 316 313 312 313 313 312 311 312 312 310 312 319 321 321 327 326 323 326 327 324 320 318 318 316 314 315 317 316 315 315 316 318 317 315 318 323 332 337 334 330 327 324 322 321 320 319 318 317 316 316 315 315 315 315 316 316
305 306 306 305 305 305 306 307 308 308 309 309 309 309 308 308 308 308 309 310 310 309 310 310 310 313 314 315 316 316 315 315 316 316 315 314 315 313 310 313 312 310 320 329 323 320 326 324 320 325 331 329 324 319 317 317 314 314 316 316 316 316 316 318 321 319 320 329 336 333 329 330 327 324 322 320 319 318 318 317 316 315 315 315 315 316 316 316
306 306 307 306 306 306 306 306 306 307 308 309 310 310 309 309 310 310 309 311 311 311 313 313 311 313 316 316 317 318 317 316 317 318 317 316 315 313 313 313 312 318 329 328 320 321 324 321 319 322 325 326 324 320 319 321 318 315 316 317 317 318 317 320 326 326 324 332 336 330 327 329 327 324 322 320 318 318 317 316 315 315 315 315 315 315 315 314
306 307 308 308 308 308 308 307 306 307 307 308 310 310 310 311 311 312 311 310 310 311 315 316 313 313 314 314 317 319 320 321 322 321 320 318 315 315 316 314 317 326 327 318 318 326 326 324 324 325 327 328 324 322 326 328 324 320 317 318 324 330 329 329 332 331 328 332 333 328 327 328 326 323 320 319 318 317 316 315 314 314 314 314 314 315 314 312
306 307 308 308 308 309 309 309 309 309 308 308 310 311 311 311 312 312 310 310 312 312 314 317 316 313 313 313 315 318 321 325 327 325 323 325 326 323 321 318 319 322 318 314 319 325 328 328 328 330 331 331 329 328 329 330 328 327 326 326 330 333 332 331 331 332 333 333 329 326 326 325 323 320 319 318 317 315 315 315 314 313 314 314 314 314 312 311
306 307 308 308 309 310 310 311 311 311 311 311 313 312 311 311 312 312 311 312 314 314 315 316 316 313 314 314 316 319 322 325 327 326 324 327 330 327 325 323 320 317 314 317 319 323 330 329 328 332 332 328 329 330 328 327 327 327 330 331 330 330 329 330 329 327 328 328 325 323 323 322 319 317 316 316 316 315 315 314 314 314 314 314 313 312 312 311
306 307 308 309 310 310 311 311 312 312 313 313 313 313 312 312 313 312 312 312 313 314 315 315 316 316 317 317 318 321 321 322 324 323 323 326 327 325 325 325 321 319 320 322 320 322 332 332 330 334 333 328 329 331 329 328 328 328 328 330 330 330 329 329 329 327 325 324 322 322 322 319 316 314 314 315 315 316 315 315 315 314 313 313 312 311 311 310
306 307 308 309 309 310 310 311 311 312 313 312 312 312 312 312 312 312 313 312 312 313 314 314 316 317 319 321 321 321 320 321 323 323 322 323 322 321 322 321 321 320 322 327 326 323 329 334 333 333 332 330 330 332 332 330 331 332 328 326 327 326 324 324 324 324 323 321 322 323 320 316 314 313 314 314 315 316 316 315 315 314 312 311 310 309 309 308
Wind_Speed
11 11 11 11 11 11 11 11 12 12 12 12 12 13 13 14 14 14 14 14 14 15 16 17 18 19 19 21 22 20 20 20 19 16 13 19 18 13 11 10 8 5 6 8 8 6 6 7 9 12 10 7 4 4 7 7 4 3 3 4 5 5 8 7 4 5 1 2 5 6 2 2 1 5 4 4 16 15 12 12 13 15 13 15 20 27 28 25
12 11 11 11 11 11 11 11 12 12 13 13 14 14 14 15 14 14 14 14 14 15 15 17 18 18 19 21 21 19 20 22 19 17 23 24 17 16 16 14 12 9 7 10 11 10 8 7 10 10 6 4 4 5 5 5 5 4 3 4 5 7 8 7 7 6 3 4 5 7 4 3 3 6 4 6 14 15 14 11 13 18 15 17 21 25 24 23
12 12 11 11 11 11 11 11 12 13 14 14 15 15 15 15 14 14 14 14 15 15 16 17 17 19 20 21 20 18 19 19 12 14 25 23 18 21 20 17 17 15 12 13 13 13 12 10 12 11 5 5 5 5 7 4 4 4 3 4 6 8 10 10 11 6 3 5 6 7 7 5 3 2 3 7 12 15 15 11 12 14 14 15 15 18 20 20
12 12 12 12 11 12 12 12 13 13 14 14 15 15 15 15 14 14 13 14 15 15 16 16 17 19 20 21 18 16 15 11 5 8 16 16 18 21 23 22 20 18 16 14 13 14 16 15 10 9 6 5 5 6 7 5 4 4 5 7 7 8 8 11 13 7 2 4 4 5 8 7 5 2 1 4 8 9 11 13 16 15 15 16 13 14 15 15
13 12 12 12 12 12 12 13 13 14 14 15 15 14 15 14 14 14 13 13 14 15 16 16 18 18 20 21 16 14 10 3 0 1 4 9 15 20 24 24 21 19 16 13 12 12 15 14 9 7 6 5 5 6 7 7 6 3 6 10 10 8 8 11 13 8 4 5 1 3 6 6 5 3 3 4 3 6 10 13 17 16 15 15 13 12 12 10
13 12 12 12 12 12 12 13 14 14 15 15 15 15 15 14 14 15 14 14 14 14 15 15 18 18 21 21 13 10 4 0 2 3 4 3 9 18 25 24 21 18 15 13 11 10 10 9 8 6 5 5 6 6 6 8 8 4 5 8 10 9 9 12 10 5 6 7 4 3 4 6 7 5 5 9 5 9 15 16 17 14 14 15 14 12 10 8
13 12 12 12 12 13 13 14 14 15 15 15 15 15 15 15 14 14 14 14 14 14 15 16 17 18 21 20 10 4 4 5 7 1 4 3 2 11 20 21 20 18 15 13 11 8 7 7 8 6 5 5 7 8 9 7 8 7 6 7 8 8 10 12 6 5 7 6 5 6 6 5 7 5 8 12 10 15 16 16 18 14 14 15 13 11 9 8
14 13 12 12 12 13 13 14 14 15 15 15 15 15 15 14 14 14 14 14 14 14 15 15 16 17 18 16 8 2 4 12 13 5 3 2 2 8 14 16 17 18 17 16 13 9 7 7 9 7 5 5 6 8 9 8 6 7 7 8 8 7 9 9 5 1 5 3 4 7 8 5 7 5 8 12 13 18 15 15 17 15 14 13 12 10 9 8
15 13 13 12 12 13 13 14 14 14 15 15 15 15 14 14 14 14 14 14 14 14 14 15 16 16 15 11 5 3 7 21 21 11 10 8 6 11 13 12 15 18 18 18 17 12 7 6 8 8 6 6 6 8 9 6 5 7 8 8 7 8 10 8 6 4 7 3 4 6 6 5 8 6 5 12 14 16 16 16 15 15 14 12 11 10 8 8
15 14 13 12 12 13 13 14 13 14 14 15 15 15 14 14 14 14 14 14 13 13 14 14 14 15 13 9 5 4 10 23 22 16 18 14 10 14 13 11 13 17 16 14 16 14 9 8 9 7 6 6 6 7 8 6 5 7 9 10 9 10 9 6 5 4 5 4 3 5 5 5 8 5 4 11 14 15 16 15 13 14 12 11 10 8 8 8
15 15 14 13 12 13 13 13 13 14 14 15 14 14 14 14 14 14 14 14 13 14 13 13 13 13 12 8 4 6 10 15 13 10 15 15 16 16 13 14 14 16 16 12 14 17 15 14 12 6 4 4 5 8 8 8 7 7 8 7 9 10 9 7 5 5 2 2 3 4 6 7 7 4 7 14 15 16 17 15 13 13 11 11 10 8 8 7
17 16 15 14 13 13 13 13 13 14 14 15 14 14 15 14 14 14 14 13 12 12 12 12 12 12 11 7 7 17 19 16 13 13 15 12 15 17 12 15 17 17 16 11 13 20 20 20 16 9 5 3 4 6 6 8 8 8 7 5 7 8 8 8 6 5 3 2 6 5 6 7 6 5 12 17 15 17 18 16 14 13 10 10 9 8 7 8
17 17 16 15 14 13 13 14 13 14 14 15 15 15 15 15 14 15 15 14 13 12 12 12 12 12 9 5 11 28 30 25 23 24 20 17 13 17 15 15 18 18 19 14 15 20 22 22 17 11 8 5 4 4 5 6 5 6 6 4 5 4 5 6 6 6 6 5 8 7 4 5 7 7 13 16 16 18 17 15 14 11 10 9 7 8 8 10
17 18 17 15 15 14 13 14 14 14 15 15 15 15 15 16 16 16 16 15 14 13 12 12 11 10 6 7 17 29 33 31 29 29 23 20 18 13 17 19 20 19 21 20 18 19 22 24 18 10 9 8 5 6 7 5 2 4 5 4 3 3 4 6 7 6 6 6 8 7 4 5 8 8 11 14 16 19 16 15 14 11 9 8 8 11 12 11
17 18 17 16 15 14 13 13 13 14 15 15 15 15 16 17 17 17 16 14 14 13 13 12 10 8 4 9 18 23 27 27 29 32 27 23 21 12 13 18 18 16 15 16 17 16 19 21 14 7 6 8 7 7 6 3 2 3 3 4 3 4 4 5 8 9 7 6 8 8 5 5 7 10 9 10 13 18 16 15 16 13 12 10 10 13 12 10
18 18 17 17 16 14 14 13 13 14 15 15 15 16 17 18 18 17 16 15 14 13 11 10 10 8 3 6 12 15 17 16 21 28 27 25 22 14 13 13 13 14 13 13 14 15 16 14 8 6 6 7 7 6 3 3 4 3 4 4 3 5 4 5 7 10 10 7 6 8 5 3 7 11 9 9 11 18 16 15 16 14 12 11 11 11 10 9
19 18 17 17 16 15 14 13 12 14 15 15 16 17 18 18 16 16 16 15 13 12 9 10 9 7 6 11 11 11 13 16 18 22 23 25 23 18 16 11 9 14 14 15 16 13 12 8 5 6 6 6 5 4 3 4 5 3 3 5 4 4 5 5 6 9 12 9 7 8 7 5 7 8 8 11 13 18 16 14 15 12 12 12 11 10 9 9
19 18 18 17 15 14 14 13 12 13 14 15 16 17 19 17 16 18 17 13 9 8 10 11 8 3 6 13 12 8 11 18 20 19 19 21 23 21 18 11 6 9 10 10 12 10 7 5 5 5 5 6 5 5 5 5 5 4 4 4 5 5 6 8 6 8 13 12 8 8 10 10 8 5 8 11 14 19 15 13 12 12 14 12 12 11 9 10
19 19 18 16 14 14 14 13 11 12 13 15 15 17 19 16 14 15 14 10 5 3 4 7 7 3 5 8 15 13 14 19 19 18 19 21 22 21 19 14 9 7 7 5 7 9 6 3 5 6 6 7 7 6 6 7 8 9 8 7 7 6 7 10 7 11 15 11 9 9 10 10 7 2 8 8 13 18 14 12 11 11 12 10 10 10 9 10
19 19 18 16 15 14 14 12 11 11 11 12 13 14 12 7 5 4 8 8 9 9 7 5 11 8 13 8 6 9 14 18 15 17 23 23 21 17 14 11 8 7 7 6 7 8 6 5 7 8 8 9 9 8 7 9 12 13 9 7 10 9 8 11 7 14 15 9 9 11 10 8 5 3 6 6 11 16 16 14 11 10 10 9 11 11 11 11
19 17 16 16 15 14 13 11 10 10 10 10 11 8 5 5 4 1 2 8 14 18 16 11 12 14 17 16 13 11 8 12 13 14 24 26 22 15 10 10 9 7 7 8 7 7 7 8 8 8 8 8 9 10 10 11 13 13 8 5 7 7 9 13 9 17 16 9 9 9 9 9 6 4 6 11 12 12 14 15 12 12 12 10 12 12 12 10
18 16 16 15 15 14 11 10 10 10 10 10 11 9 8 15 15 10 7 7 12 18 18 17 16 15 20 27 26 18 10 9 13 12 22 25 18 12 9 10 10 6 8 9 6 6 8 8 8 8 7 6 8 11 13 14 13 10 7 5 6 5 8 11 8 18 15 7 7 9 9 8 6 10 14 16 15 10 12 14 13 13 12 11 11 12 11 11
16 15 15 14 13 12 10 10 10 10 12 13 15 15 15 21 21 19 12 6 9 13 14 15 16 15 18 24 23 17 13 10 11 11 23 22 13 12 11 10 11 8 10 12 8 7 7 6 8 8 7 9 10 12 14 13 11 7 6 5 5 7 8 7 7 19 15 6 8 11 7 4 8 14 16 16 16 14 15 15 13 11 10 11 11 10 10 11
15 14 13 12 11 10 9 10 11 13 17 17 21 25 24 22 20 19 10 4 8 10 10 15 15 12 18 21 15 11 10 10 11 10 23 21 11 12 11 11 12 9 10 14 12 9 6 6 9 10 11 13 12 12 12 10 8 8 8 7 6 9 10 7 7 16 13 6 7 9 6 3 7 14 13 12 15 15 13 15 14 12 11 12 12 11 10 11
14 13 12 11 9 8 7 8 12 18 17 17 24 29 28 25 23 19 8 3 7 5 9 14 10 13 24 23 16 12 10 11 12 9 20 20 13 11 9 8 9 10 12 16 14 9 7 9 12 13 13 15 14 12 11 10 7 8 9 10 12 13 11 7 6 10 6 4 4 9 7 1 4 14 13 9 13 14 11 14 13 11 11 12 11 10 11 11
13 11 11 10 8 5 4 5 13 18 14 17 24 23 21 20 22 19 7 3 6 4 9 11 7 13 20 14 11 11 10 10 11 7 14 19 16 12 8 5 6 9 11 12 9 5 7 11 15 16 14 15 15 11 12 11 7 7 7 10 14 14 12 9 4 4 4 5 5 8 8 2 2 10 12 11 14 14 11 12 11 10 9 10 9 9 10 10
10 10 10 9 8 6 4 5 12 11 9 14 19 19 22 23 20 14 4 2 5 5 11 11 7 12 14 9 12 11 6 4 7 11 10 18 17 11 9 7 5 8 8 8 7 5 9 12 15 17 15 13 12 10 11 11 7 6 6 10 13 12 11 9 5 4 6 6 5 8 10 4 2 6 11 15 16 13 10 10 10 9 9 10 9 9 11 10
6 8 10 9 8 8 10 10 13 10 10 14 18 23 20 17 13 6 2 2 2 4 8 9 9 13 12 10 14 10 5 6 9 11 11 19 18 10 8 10 8 10 10 8 7 6 10 13 13 17 14 10 9 10 11 11 8 5 6 10 10 8 9 7 5 5 4 6 4 7 10 5 3 4 8 13 14 11 11 11 10 10 10 10 10 10 11 9
5 8 10 8 6 9 13 14 14 15 18 17 20 21 9 7 7 4 1 4 2 4 6 8 10 11 8 9 14 12 9 6 7 8 9 16 20 11 7 10 9 11 13 10 8 6 9 13 12 13 12 9 9 10 12 12 8 5 8 10 7 6 6 3 4 4 2 5 5 6 10 5 2 5 7 8 10 10 10 10 10 10 10 10 10 10 9 8
6 8 9 7 7 9 12 16 19 21 20 18 20 17 8 9 5 1 4 5 3 3 5 6 8 10 10 11 12 12 11 9 6 7 8 11 18 13 6 8 8 7 10 10 9 8 9 12 12 10 10 10 10 10 13 14 8 7 9 9 6 7 4 1 3 1 3 3 6 9 11 7 3 6 7 5 8 15 15 11 11 12 12 10 8 8 7 7
5 7 8 8 9 9 8 11 14 15 15 18 20 11 6 5 0 3 5 5 2 4 6 6 9 10 13 13 11 11 13 10 7 10 9 9 14 12 5 7 7 5 7 8 9 11 11 12 10 8 9 11 11 10 12 14 9 8 8 6 4 5 2 1 1 2 3 4 6 9 10 7 4 4 3 1 8 14 15 15 15 15 14 11 7 7 7 6
5 7 9 10 11 12 11 10 11 8 8 18 17 5 4 2 3 4 5 6 1 6 6 9 11 10 13 13 11 12 12 10 9 9 9 8 10 10 7 7 5 4 6 6 7 9 10 9 10 9 7 10 12 8 9 11 9 7 6 5 5 3 2 3 3 2 3 4 6 9 8 3 3 1 3 5 12 11 9 12 15 15 15 13 9 8 7 6
6 8 10 11 12 14 15 15 14 8 11 19 11 1 1 3 4 4 5 5 0 4 4 9 12 11 13 11 10 13 12 10 10 9 10 9 8 10 10 9 7 6 5 5 6 6 7 6 11 13 8 7 11 7 6 8 7 7 6 5 6 3 3 4 3 2 1 4 7 9 7 2 2 3 6 7 11 11 11 12 13 14 13 12 9 8 7 7
7 9 11 11 13 14 14 15 15 13 15 16 4 4 2 5 3 2 4 5 5 6 4 10 13 11 12 10 9 12 11 10 11 9 11 10 7 8 11 12 13 9 4 5 5 6 7 6 9 13 6 6 12 9 7 7 6 6 6 5 4 4 5 3 3 3 2 4 4 6 4 2 2 3 6 9 11 11 13 12 12 12 10 9 8 8 8 7
8 9 11 12 13 14 14 13 14 14 12 5 2 2 5 5 2 1 1 4 6 8 8 7 12 10 9 8 10 12 10 8 11 9 9 9 7 7 9 11 14 11 6 5 4 5 8 6 8 12 8 5 9 9 9 8 5 4 5 5 5 4 5 4 4 6 4 2 1 2 2 1 3 6 8 10 11 11 13 13 13 11 8 8 8 7 7 7
10 11 11 13 14 12 12 13 13 11 6 1 2 4 5 3 3 3 4 7 7 9 12 5 8 9 6 6 9 12 11 8 9 8 7 9 8 8 10 9 12 12 8 5 4 5 6 4 7 11 9 9 10 8 7 7 5 4 4 6 6 5 5 4 4 4 5 3 1 1 3 4 4 4 7 10 11 11 11 12 12 10 8 8 7 7 7 7
11 11 10 13 14 11 11 14 13 10 4 1 3 4 4 5 6 6 7 10 9 8 9 5 4 7 6 5 5 11 13 9 8 7 6 8 8 9 12 11 12 13 11 7 4 4 5 3 6 11 10 9 10 8 5 2 3 4 6 6 4 5 4 4 3 2 4 3 2 2 5 6 4 2 6 11 11 10 11 12 12 10 8 7 8 8 8 8
11 10 10 14 14 12 12 13 12 9 3 1 4 5 5 6 8 9 9 12 10 7 6 3 2 2 6 7 6 10 12 8 7 6 6 7 6 9 13 10 12 15 14 10 5 3 5 3 4 11 12 6 6 5 5 6 6 5 6 6 5 5 6 3 4 3 5 4 2 3 5 5 3 3 8 11 12 12 12 12 12 12 10 8 8 9 9 8
8 5 7 9 9 13 14 13 9 4 1 1 4 4 4 6 9 10 12 12 9 5 4 2 2 4 1 3 5 10 13 9 7 4 5 6 4 10 15 9 10 16 16 12 6 2 3 4 2 7 12 8 4 4 4 6 9 7 4 6 6 5 4 3 3 4 5 4 3 5 4 3 1 4 11 12 12 13 12 11 12 12 11 9 9 9 8 7
4 2 4 4 7 15 15 12 6 1 1 3 4 4 6 7 9 11 13 12 7 1 1 2 2 4 4 3 3 3 10 11 7 4 4 7 6 10 16 11 9 16 19 14 7 2 2 4 0 4 7 8 4 6 8 8 6 5 4 6 5 3 3 3 2 2 5 3 4 5 2 2 0 2 10 14 13 13 13 11 10 11 11 10 9 8 7 6
3 1 3 2 9 17 15 8 3 2 2 3 4 6 8 7 9 12 13 11 7 4 5 6 6 4 2 2 5 5 4 9 9 6 4 9 8 6 12 13 10 13 17 13 6 4 2 3 2 3 4 6 4 8 12 10 6 5 4 5 5 4 5 5 3 2 4 3 4 5 3 1 1 2 5 12 13 12 13 12 10 10 11 10 9 8 6 5
1 1 3 1 10 16 11 4 3 3 2 3 5 7 8 7 9 11 11 10 9 8 8 8 7 4 2 1 3 5 3 5 10 8 4 8 9 5 8 14 12 12 12 8 5 5 5 3 2 3 4 5 4 6 11 11 8 6 6 4 5 4 5 6 4 4 3 3 4 4 3 2 2 3 4 11 12 11 11 12 12 10 10 10 9 7 6 5
1 2 6 3 7 9 5 3 3 4 4 6 9 10 9 9 9 9 10 10 9 6 5 4 5 2 1 4 4 4 5 1 8 9 6 7 9 8 9 13 14 12 10 6 6 5 6 4 4 3 3 4 6 6 7 8 7 6 7 6 4 3 4 6 5 4 4 3 4 3 2 2 3 3 6 11 12 12 10 11 12 10 8 9 9 7 5 4
1 1 3 3 6 4 2 3 3 3 5 6 9 10 9 9 8 8 9 9 7 4 1 1 4 2 2 5 5 5 5 3 5 7 5 6 8 10 12 14 14 11 8 6 5 5 5 4 3 4 3 4 6 6 4 7 7 3 4 6 5 3 4 5 2 2 1 3 7 6 2 2 1 4 10 13 14 13 11 10 11 11 9 8 8 6 5 4
1 1 0 3 5 3 3 3 1 1 4 5 7 9 9 7 6 8 11 9 7 5 2 1 4 4 3 6 5 5 5 2 4 6 3 5 6 8 12 14 14 10 8 9 8 4 3 4 4 4 5 6 7 6 4 5 5 2 2 7 9 8 5 5 3 3 3 2 7 7 4 4 5 9 13 13 14 13 11 11 11 10 10 8 6 5 4 4
1 1 2 2 4 4 4 4 2 3 5 3 4 7 6 5 5 7 9 6 4 4 3 3 4 3 4 6 4 4 6 5 3 5 6 3 4 5 8 10 12 12 11 14 14 6 2 4 5 4 5 6 4 2 1 1 3 4 2 4 10 13 11 6 5 4 5 4 4 5 12 12 8 11 13 12 13 13 11 12 12 10 10 8 6 5 4 6
1 1 2 3 3 4 4 5 5 6 5 3 3 4 6 7 6 5 6 4 2 3 2 2 3 3 4 5 5 4 6 8 6 7 8 4 4 3 5 4 8 10 13 14 12 6 3 4 5 3 2 4 3 2 5 5 2 6 6 5 8 12 13 6 5 6 8 6 2 5 16 17 11 12 14 11 12 12 11 11 11 10 10 8 6 5 6 8
1 2 2 1 2 3 3 5 6 6 8 8 4 2 5 8 6 4 4 3 3 4 3 1 2 4 6 5 4 3 6 8 7 7 7 2 4 1 3 4 2 10 14 11 6 5 5 4 5 3 2 2 3 3 6 9 7 2 8 9 3 3 3 3 4 7 9 6 6 10 14 15 13 13 13 12 11 11 11 11 10 10 10 9 8 7 8 10
2 2 3 3 3 2 2 4 5 6 8 8 3 1 4 7 7 5 5 3 3 4 3 3 4 5 7 6 3 3 4 4 2 4 6 4 4 2 2 3 0 7 11 8 4 4 5 1 2 5 3 5 6 7 9 10 10 10 5 4 10 14 14 11 7 9 11 11 13 16 12 9 9 11 12 11 10 10 10 10 9 10 11 11 9 9 10 11
1 2 3 3 3 3 3 4 3 4 5 5 2 2 5 6 6 6 6 5 4 3 2 2 5 6 7 7 4 4 4 1 2 2 5 5 6 5 3 3 3 2 6 7 3 5 6 1 2 5 4 3 5 9 11 13 13 13 12 9 12 16 15 12 10 13 15 13 14 15 11 6 4 7 11 11 10 10 10 10 10 10 10 10 10 11 11 10
4 4 3 3 3 3 3 4 3 1 2 2 2 2 3 4 5 7 7 6 5 5 4 5 7 6 6 7 5 4 3 3 1 2 2 2 2 3 2 2 4 4 1 4 3 5 7 1 2 5 5 1 2 6 11 12 12 12 11 10 8 10 10 7 6 8 11 15 16 13 8 5 5 8 11 11 11 11 11 10 9 8 8 10 11 11 11 10
7 5 2 2 2 2 2 3 3 2 2 2 2 3 3 5 6 6 4 5 5 6 6 6 7 5 4 5 2 2 1 3 1 1 1 4 3 2 2 4 5 5 3 2 3 4 5 4 3 4 4 0 4 2 4 6 6 6 5 6 5 7 10 10 9 8 10 15 14 8 7 8 10 11 12 12 11 11 9 7 6 8 10 10 10 11 10 10
Wind_Direction
323 323 323 323 322 322 323 322 324 323 323 322 321 323 322 321 318 319 320 317 317 317 318 319 321 323 323 324 321 320 325 322 313 306 270 245 247 250 252 265 259 206 203 226 224 231 218 203 224 235 241 251 240 235 259 261 241 223 195 216 247 240 248 246 254 264 284 354 345 347 6 84 229 172 178 107 93 89 71 63 68 72 84 102 117 128 133 138
317 318 318 318 319 319 319 320 322 323 323 322 320 320 320 321 317 315 316 318 318 317 318 319 321 322 323 324 321 324 329 319 305 283 260 250 244 244 247 248 235 219 214 219 225 232 220 199 208 217 227 236 226 223 229 237 229 219 190 205 231 236 254 266 278 289 16 20 351 341 337 1 255 192 170 125 109 102 90 78 81 85 89 97 110 121 127 133
311 312 312 313 316 315 316 317 318 320 320 321 320 318 318 319 318 313 312 313 315 317 318 319 320 321 323 323 321 330 329 313 296 266 264 258 238 228 229 234 229 227 231 228 228 232 243 239 212 201 207 231 230 222 216 211 219 216 195 222 235 238 261 274 279 295 55 46 20 343 329 342 306 191 163 154 127 114 117 114 103 104 108 109 113 121 126 131
306 307 308 308 310 310 312 314 316 318 318 319 319 319 319 319 318 315 312 311 311 314 316 318 321 321 324 323 322 332 325 302 275 256 264 253 232 219 214 222 225 226 232 234 236 241 262 275 252 210 202 224 231 232 226 203 205 209 196 231 250 248 265 277 287 304 65 67 45 341 337 328 317 354 320 174 142 123 132 134 127 128 126 123 123 124 127 133
300 301 303 303 304 306 308 310 312 314 315 317 317 316 318 319 318 316 315 312 311 313 315 318 321 323 325 321 322 331 326 299 266 279 251 226 217 209 207 214 218 221 226 231 243 254 265 277 278 237 212 225 231 232 235 212 201 222 217 229 249 260 280 284 292 315 46 59 36 351 359 326 321 337 17 73 132 133 129 130 129 133 132 128 127 125 128 130
293 295 298 299 300 302 305 307 309 311 312 314 314 314 314 315 314 315 315 311 313 314 315 319 319 325 325 320 322 318 301 267 331 47 78 167 196 203 206 209 212 216 220 227 241 257 261 258 264 248 213 222 237 238 243 217 193 217 244 236 241 245 262 273 289 337 53 48 341 340 6 336 338 332 61 70 84 120 126 129 124 126 124 122 122 124 128 125
285 288 290 293 296 298 301 304 306 309 310 311 312 312 311 312 311 311 309 308 312 312 314 318 319 324 326 328 326 268 234 277 276 117 68 55 153 202 205 206 210 210 210 220 229 236 249 248 248 247 220 215 235 248 256 239 197 200 241 250 248 240 244 255 289 16 50 35 323 318 334 323 314 320 78 83 94 110 119 122 120 121 119 117 117 121 127 125
276 279 282 287 290 294 298 301 304 308 309 311 309 310 311 311 309 306 305 305 308 310 313 317 320 325 328 336 335 236 239 245 233 228 280 260 179 188 191 198 207 208 206 212 218 218 230 247 245 241 237 225 227 241 254 259 228 208 226 252 263 264 259 257 267 79 84 33 299 293 304 294 277 294 91 104 110 112 115 113 115 117 115 116 119 120 122 123
272 272 274 279 284 289 295 298 303 307 309 310 309 310 309 309 309 306 305 304 306 308 310 315 319 324 325 328 308 281 248 228 227 252 259 234 202 184 177 185 197 201 205 213 219 223 222 234 244 237 239 245 240 244 249 256 238 210 216 237 250 264 270 269 262 195 140 151 236 251 274 283 279 298 95 122 121 116 114 111 113 114 116 116 118 121 119 119
273 271 269 271 278 284 290 295 299 305 308 309 308 309 307 308 307 304 304 302 305 305 308 314 317 323 322 309 272 263 251 233 234 251 244 227 203 191 185 189 193 192 199 213 217 225 226 230 245 241 248 261 258 256 250 248 243 224 221 227 233 249 263 275 280 240 152 139 212 233 243 255 263 275 113 130 128 120 117 116 118 114 116 115 112 116 113 111
272 270 269 266 271 278 285 289 295 302 306 306 307 308 305 305 303 302 302 297 301 304 306 313 317 323 312 297 269 239 244 231 228 264 255 226 198 194 193 194 196 190 194 208 217 224 230 239 254 255 243 252 271 275 266 260 267 264 249 239 236 240 256 269 271 247 154 117 218 238 251 247 247 227 150 141 138 132 128 124 119 112 113 112 108 107 105 103
270 268 268 265 265 272 279 283 290 298 301 303 303 304 302 301 300 297 295 293 299 302 305 312 317 319 301 286 250 236 238 231 243 300 302 266 218 203 197 194 199 196 196 204 218 224 231 241 253 260 243 212 252 278 281 266 271 281 281 274 252 242 253 255 252 230 160 167 207 214 258 254 245 213 153 146 149 141 133 127 121 117 117 116 113 109 100 94
267 267 264 264 264 264 272 278 285 293 297 299 298 301 300 297 294 289 289 291 293 295 300 305 308 310 300 284 250 240 245 253 270 292 298 298 265 215 209 207 204 205 204 209 219 222 230 240 249 258 259 245 227 249 261 251 261 281 278 267 251 252 256 238 242 228 171 182 200 190 247 256 249 221 158 155 155 139 132 128 124 122 122 121 115 103 88 81
260 264 263 262 263 261 266 271 279 290 293 294 295 297 295 290 288 286 288 288 290 297 299 300 299 295 277 269 268 252 253 264 276 281 276 291 296 244 225 220 214 215 209 212 222 223 225 233 245 257 260 258 254 267 266 254 261 283 281 273 224 212 253 224 217 212 170 193 202 182 226 250 249 227 171 165 155 138 135 130 125 125 123 120 107 94 84 77
254 258 260 260 262 263 266 269 276 285 289 291 293 293 289 286 286 286 287 286 289 293 289 290 279 270 284 274 273 267 263 264 266 267 263 270 286 278 241 222 216 225 221 219 230 234 228 225 234 248 254 259 261 269 279 295 262 232 245 269 231 202 264 254 212 194 175 213 198 175 221 254 246 229 182 169 153 135 133 130 128 130 127 119 103 94 90 84
255 252 254 258 260 261 266 270 274 280 286 289 289 289 287 286 288 288 287 285 289 290 281 277 252 229 271 274 273 283 273 259 256 258 254 251 259 268 261 240 214 218 230 237 241 249 243 227 219 231 242 251 247 245 279 309 270 224 194 223 227 196 228 267 226 191 184 215 196 178 221 245 230 230 181 161 146 129 131 131 130 132 125 113 100 96 97 90
258 253 251 251 255 257 262 266 270 277 282 288 289 289 290 291 290 290 291 286 283 281 259 255 255 224 245 270 281 284 253 243 247 245 242 239 241 249 257 257 218 202 210 226 233 239 244 233 207 215 227 234 222 203 225 257 255 259 210 207 234 208 198 229 227 189 185 207 205 190 220 232 239 241 176 160 139 127 134 132 127 122 109 104 101 99 97 93
261 255 249 243 245 249 254 260 266 273 279 288 290 291 296 296 289 284 285 281 266 264 251 249 265 243 239 249 249 248 227 231 234 229 231 228 229 241 247 252 235 198 197 215 222 221 225 224 202 197 209 222 215 182 188 215 217 231 216 194 237 243 218 224 216 176 183 203 210 196 216 236 264 262 166 155 130 128 135 122 111 106 105 109 108 107 103 97
268 260 252 243 239 241 247 253 259 269 279 288 292 302 308 301 288 275 262 256 228 223 247 215 203 227 305 240 220 238 233 223 223 215 215 212 213 234 243 245 247 212 197 199 201 203 203 210 208 203 204 211 212 193 188 209 218 225 213 182 209 235 240 240 214 171 179 195 209 201 208 226 266 245 146 130 116 126 126 106 97 100 107 109 103 103 99 94
271 263 256 248 242 240 243 245 253 266 274 283 295 310 311 286 266 251 221 224 220 228 255 206 188 240 301 293 240 261 243 231 232 207 201 200 197 213 233 234 236 222 205 193 190 196 196 212 216 206 205 200 201 210 214 224 233 236 227 192 204 215 236 252 220 173 175 181 209 208 196 206 230 176 142 97 100 123 123 106 99 101 103 100 97 98 96 95
272 260 253 251 248 241 240 244 250 261 266 274 284 290 284 232 219 33 179 221 225 228 249 248 213 228 257 269 287 310 284 252 253 210 192 193 189 193 212 211 217 220 201 196 195 194 200 218 219 200 198 191 190 211 228 237 241 242 249 237 224 214 224 247 214 172 175 176 201 196 176 195 200 142 92 69 82 117 122 109 105 104 99 96 97 99 98 95
273 260 251 249 248 242 239 248 251 261 266 262 261 254 254 249 255 297 307 260 240 223 232 248 245 245 250 259 270 283 294 269 260 224 186 185 187 186 190 196 211 207 188 202 199 191 209 222 212 190 190 198 199 209 221 239 245 241 252 255 255 245 233 249 202 171 179 178 183 179 173 191 155 93 73 73 79 87 88 90 100 104 103 102 100 100 99 92
273 265 253 240 243 245 242 252 257 262 253 244 244 240 248 255 264 289 291 281 275 236 221 231 239 252 256 260 266 266 271 264 259 219 178 180 188 185 185 191 205 198 187 206 203 188 206 208 196 189 192 210 218 213 214 233 246 239 238 235 253 254 245 260 185 170 179 173 167 173 168 156 115 86 74 78 82 77 72 75 77 79 89 95 92 90 89 90
272 267 251 233 238 245 247 259 260 255 246 241 245 244 249 259 269 283 282 271 276 253 234 228 221 236 245 249 257 251 248 251 256 204 172 180 185 180 194 189 195 205 193 205 212 203 198 173 185 198 200 208 221 221 211 218 239 240 233 227 244 249 247 252 175 164 175 183 162 147 115 95 114 95 85 86 84 82 79 79 75 69 75 78 80 80 76 81
271 263 243 227 226 238 258 268 258 253 246 240 249 254 256 258 260 265 277 287 265 248 241 232 213 230 237 238 241 244 252 251 252 201 167 182 181 168 198 191 190 211 195 199 212 214 204 176 184 204 205 206 217 222 212 204 222 244 235 228 238 247 257 254 168 145 156 212 183 128 111 260 128 103 101 98 88 86 81 84 83 78 80 81 80 80 76 75
267 255 234 217 205 226 254 260 258 250 238 240 251 261 262 257 254 252 251 286 269 240 210 200 181 216 224 222 212 223 256 254 246 225 172 181 183 171 194 196 186 209 195 192 209 217 211 189 185 201 206 205 213 222 219 203 204 238 228 224 238 246 261 271 228 159 159 206 199 139 128 210 170 110 112 107 95 95 90 88 88 82 82 85 85 84 85 83
262 245 228 211 194 200 202 253 283 264 240 255 265 281 276 254 242 236 227 299 265 215 190 177 161 188 190 184 181 193 240 208 216 248 204 180 184 178 196 200 178 204 195 184 206 200 203 204 190 194 205 207 210 217 217 206 202 228 226 227 236 238 248 269 277 234 181 183 184 139 127 136 181 139 127 117 107 107 105 97 94 91 88 87 87 88 90 91
245 229 225 212 202 210 221 262 301 290 269 279 293 307 291 240 213 180 147 272 241 156 170 174 170 172 170 172 180 200 240 153 173 235 214 182 185 182 200 209 187 197 202 194 204 178 189 217 201 186 200 211 208 209 210 210 211 216 234 241 236 229 239 251 277 271 176 164 185 140 129 133 172 158 136 123 117 123 124 117 110 102 97 93 92 92 92 93
222 222 221 217 230 238 242 258 274 266 265 279 296 314 335 139 130 88 203 250 215 139 141 154 167 174 175 169 180 212 237 197 179 207 198 186 193 198 208 216 201 197 212 215 211 180 184 218 216 188 196 209 206 204 206 215 217 200 233 257 258 240 241 223 238 281 91 152 206 171 143 136 166 165 155 139 132 139 133 124 122 114 109 105 100 99 96 93
221 227 226 230 246 249 251 250 254 263 270 281 294 311 15 85 87 113 217 241 234 154 120 143 169 177 180 171 180 208 219 228 216 181 184 186 192 204 202 212 222 207 214 220 217 216 199 207 221 207 194 197 205 204 205 217 209 175 219 256 273 258 253 144 212 245 75 196 223 197 166 138 145 183 184 184 157 151 143 135 134 125 119 115 108 107 102 97
223 232 236 240 239 249 255 244 259 273 270 278 290 312 38 62 12 200 209 259 276 112 113 161 172 172 182 174 174 198 209 232 228 183 183 176 184 201 189 197 228 219 212 218 214 228 218 200 210 218 194 184 198 207 204 214 206 175 206 225 241 280 304 71 283 82 127 234 241 212 189 140 122 203 233 97 123 139 143 142 140 133 127 124 115 110 109 101
243 244 246 243 243 253 257 262 282 282 272 285 292 317 72 113 225 227 250 301 302 144 153 172 169 170 182 179 175 189 200 223 227 194 182 168 175 198 201 195 200 183 204 208 195 220 231 209 198 211 216 189 191 203 196 206 208 188 199 186 177 266 267 203 239 172 177 233 230 204 191 135 95 325 329 94 113 120 127 130 133 132 128 126 121 113 109 102
267 264 258 250 249 251 254 268 276 269 296 301 292 123 101 198 201 223 261 304 354 168 178 166 171 175 175 178 179 185 197 217 222 199 180 175 171 190 211 218 200 178 196 199 178 197 233 237 201 202 226 206 192 192 183 197 205 196 196 166 153 176 199 212 216 172 214 251 212 178 154 138 118 29 13 77 107 110 112 114 118 120 121 121 119 112 104 99
281 269 264 259 253 251 256 266 262 258 287 296 266 138 205 219 218 213 230 267 286 289 251 166 167 173 174 182 180 178 194 221 222 196 174 180 177 183 206 219 215 205 192 186 179 188 209 233 209 198 201 199 196 188 170 178 188 198 195 167 164 173 170 194 175 144 228 248 193 146 136 187 159 85 50 68 86 96 104 108 108 109 114 117 116 114 108 101
288 274 271 268 258 252 252 250 249 260 281 291 151 186 212 210 261 325 281 303 314 313 296 195 172 172 177 184 182 179 188 221 226 204 180 185 183 182 194 211 220 215 187 179 192 201 208 222 208 193 181 185 202 190 164 166 186 197 177 174 208 198 142 152 174 147 147 181 95 72 77 75 101 95 86 86 90 97 103 107 109 109 114 119 115 113 108 98
300 291 278 262 255 253 245 236 239 252 270 281 173 225 225 234 302 327 340 336 335 327 322 298 179 170 169 179 181 180 185 215 229 211 187 188 185 183 189 204 219 218 202 182 183 190 203 226 199 183 187 203 206 199 169 162 180 182 174 195 218 206 136 128 183 145 104 111 248 254 109 105 103 95 104 107 103 109 113 113 115 116 115 116 111 105 101 97
311 305 285 260 252 244 229 229 228 218 212 257 221 226 247 263 283 310 321 318 320 326 336 338 189 178 163 171 182 177 180 203 225 214 181 185 192 187 191 203 215 221 222 198 178 186 186 205 192 180 197 208 192 203 232 214 183 171 184 203 211 218 198 128 140 154 119 140 207 179 145 143 150 148 139 136 130 131 131 124 122 120 115 110 106 103 98 97
316 314 295 270 249 222 211 217 221 209 183 286 246 250 270 265 281 309 308 301 315 336 345 352 244 215 151 165 188 175 174 191 215 210 172 178 196 189 192 204 209 220 232 214 198 223 184 171 218 193 187 178 149 182 261 277 250 209 183 184 164 192 222 170 141 166 157 157 126 119 151 161 161 160 158 154 150 147 141 135 132 126 125 120 109 105 98 95
316 315 297 273 220 201 204 200 204 213 156 218 231 243 274 279 284 294 293 296 318 341 331 340 296 320 23 177 197 175 174 189 210 213 177 177 197 193 192 199 201 213 232 227 201 226 173 130 290 215 174 153 133 167 223 249 249 245 208 189 176 168 188 174 164 169 156 154 132 129 161 203 185 158 165 163 156 150 145 141 137 132 132 127 114 109 103 100
298 260 282 284 175 182 192 184 181 198 181 226 243 251 275 291 289 288 293 302 317 331 279 286 277 314 338 325 317 196 180 184 204 232 192 178 187 192 193 193 191 203 224 232 199 147 95 109 316 255 176 159 166 189 205 215 222 233 216 194 192 168 155 174 209 173 145 140 134 137 184 234 61 151 166 159 152 150 145 138 134 130 125 116 107 109 109 108
275 244 276 271 161 168 176 175 185 201 200 239 250 257 269 279 282 286 296 301 294 250 241 261 269 290 310 313 337 326 200 180 200 230 196 178 181 187 196 193 186 193 213 231 209 153 93 108 156 261 206 183 185 188 201 213 206 200 206 190 177 149 141 169 243 228 148 138 139 144 158 166 12 324 169 153 148 148 141 133 126 116 109 104 102 107 108 108
272 286 301 264 157 164 169 177 205 203 222 247 241 251 265 270 272 283 294 295 286 264 235 243 272 289 292 311 341 325 298 187 201 214 186 182 191 201 203 192 187 192 197 216 216 161 107 107 179 243 224 207 220 198 193 204 213 215 230 212 163 152 148 158 202 222 183 135 102 111 120 118 315 312 147 142 137 133 129 123 116 107 105 106 106 107 108 116
178 276 303 275 179 176 180 196 207 210 229 244 246 252 260 264 265 278 291 290 285 270 217 228 293 307 2 351 336 315 331 272 216 212 174 171 199 210 201 187 189 196 188 191 213 168 113 123 193 211 218 218 244 239 197 192 208 222 234 218 182 179 163 149 161 174 185 170 113 87 102 123 317 340 111 117 113 113 114 114 114 113 111 112 115 119 128 143
220 294 309 246 212 219 234 215 208 217 236 253 260 262 268 269 266 271 282 284 291 308 121 213 318 359 357 329 315 304 333 344 252 240 190 168 198 205 195 191 193 194 184 177 192 182 154 150 152 149 168 190 213 230 217 205 209 216 229 210 210 234 182 159 159 129 181 198 132 116 126 143 94 87 108 111 110 112 116 116 116 117 117 118 122 131 148 151
287 65 69 218 215 231 250 252 335 303 270 290 289 278 276 277 275 273 275 277 289 314 358 330 334 360 311 298 300 304 318 293 258 281 253 176 185 201 196 194 197 196 189 169 152 154 160 140 129 139 161 178 192 206 209 202 197 208 253 200 208 241 220 163 156 169 209 176 114 118 136 128 115 112 114 117 120 121 123 120 115 115 119 122 129 140 145 124
338 106 144 164 186 211 247 265 268 258 268 291 289 281 283 285 289 288 286 286 290 306 327 316 324 333 299 305 323 329 324 303 292 314 291 194 157 212 204 195 202 195 173 155 143 130 104 130 141 149 167 180 191 213 187 123 176 192 251 213 203 226 229 172 135 186 185 120 83 137 141 133 135 134 128 127 128 127 127 124 118 120 125 127 137 144 125 106
313 310 172 152 187 214 242 255 238 237 249 243 249 293 313 310 310 308 293 289 319 320 304 276 301 305 294 320 341 341 335 329 339 330 288 225 143 215 227 223 218 181 145 140 140 119 86 136 165 189 217 171 147 66 41 30 293 204 211 239 218 220 226 196 132 156 151 115 59 169 144 137 146 146 135 134 133 128 128 126 125 129 131 129 138 139 119 107
278 312 293 307 258 206 209 242 246 250 251 244 238 276 304 302 303 298 280 293 341 339 327 292 298 286 279 298 322 330 345 346 350 340 304 237 126 195 282 313 233 149 130 132 141 111 98 143 169 165 356 39 92 50 48 45 14 295 211 217 197 113 135 113 117 155 153 136 155 166 150 138 142 143 135 132 132 129 127 126 129 133 132 135 145 139 116 103
317 318 306 313 291 234 233 272 293 301 281 268 255 246 279 287 289 289 298 334 349 321 324 330 315 307 297 296 314 337 349 353 339 341 336 349 39 24 338 349 326 150 134 131 138 104 91 69 138 113 48 11 50 55 59 70 54 34 35 117 96 85 83 79 81 103 100 102 127 136 128 113 123 133 128 124 123 122 122 125 132 141 143 146 146 128 109 100
283 296 308 307 292 303 327 310 317 323 303 303 309 269 279 287 304 324 326 333 328 302 306 313 306 313 310 310 356 24 5 10 183 271 336 358 18 12 357 12 343 237 140 123 123 102 95 335 317 90 75 15 59 76 76 82 80 60 37 44 82 89 84 79 83 89 86 89 105 111 105 93 101 114 114 115 118 121 129 138 145 154 154 145 130 115 108 105
259 263 285 304 303 335 344 316 316 311 292 313 320 311 317 313 336 354 335 306 295 287 291 313 313 319 325 335 23 60 349 329 183 190 311 305 353 360 331 1 1 325 22 94 105 106 104 104 340 69 85 2 20 93 100 95 84 66 35 11 37 75 82 76 72 85 105 116 114 112 121 136 138 125 116 118 125 129 138 144 147 148 136 122 113 107 104 99
318 301 320 329 298 315 333 318 333 332 287 310 328 315 305 296 318 343 327 290 276 259 260 287 300 309 339 350 19 129 286 312 268 173 256 257 278 15 359 339 9 10 351 36 82 90 103 113 84 82 111 210 317 356 100 102 80 53 11 338 6 81 96 81 57 63 107 128 132 144 156 144 141 137 128 129 133 131 133 133 128 125 115 105 101 100 97 94